Flag for U.S.A. Weather past 2 weeks in Tulsa, Oklahoma, U.S.A.

Now
58 °F

Overcast.


Feels Like: 56 °F
Forecast: 53 / 74 °F
Wind: 10 mph from Northeast

Location: Tulsa International Airport

Current Time: Apr 26, 2015 at 5:51:31 AM

Latest Report: Apr 26, 2015 at 4:53 AM


Visibility: 10 mi

Pressure: 29.71 "Hg

Humidity: 84%

Dew point: 53 °F

Location of TulsaLocation

Historic Weather in Tulsa — Graph

°F

Tulsa temperature yesterday

Maximum temperature yesterday: 84 °F (at 2:53 PM)
Minimum temperature yesterday: 62 °F (at 12:53 AM)
Average temperature yesterday: 71 °F

Past Weeks' High & Low Weather Summary

 TemperatureHumidityPressure
High84 °F (Apr 25, 2:53 PM)100% (Apr 15, 2:01 AM)30.16 "Hg (Apr 15, 2:01 AM)
Low45 °F (Apr 20, 5:53 AM)29% (Apr 20, 2:53 PM)29.47 "Hg (Apr 25, 3:53 AM)
Average62 °F69%29.89 "Hg
* Reported Apr 11 4:53 AM — Apr 26 4:53 AM, Tulsa, Weather by CustomWeather, © 2015

Note: Actual official high and low records may vary slightly from our data, if they occured in-between our weather recording intervals... More about our weather records

Advertising

Tulsa weather history for previous 24 hours

 ConditionsComfort  
Time TempWeatherWind HumidityBarometerVisibility
4:53 AM
Sun, Apr 26
58 °FOvercast.10 mph84%29.71 "Hg10 mi
3:53 AM59 °FOvercast.13 mph81%29.71 "Hg10 mi
2:53 AM58 °FPassing clouds.7 mph87%29.70 "Hg10 mi
1:53 AM60 °FClear.9 mph83%29.71 "Hg10 mi
12:53 AM61 °FClear.7 mph81%29.71 "Hg10 mi
11:53 PM
Sat, Apr 25
64 °FClear.9 mph73%29.69 "Hg10 mi
10:53 PM66 °FClear.8 mph68%29.68 "Hg10 mi
9:53 PM69 °FClear.8 mph61%29.64 "Hg10 mi
8:53 PM72 °FSunny.12 mph55%29.62 "Hg10 mi
7:53 PM73 °FSunny.6 mph46%29.58 "Hg10 mi
6:53 PM81 °FSunny.9 mph34%29.56 "Hg10 mi
5:53 PM83 °FSunny.13 mph33%29.54 "Hg10 mi
4:53 PM83 °FSunny.14 mph32%29.54 "Hg10 mi
3:53 PM84 °FPassing clouds.16 mph31%29.54 "Hg10 mi
2:53 PM84 °FPassing clouds.18 mph32%29.54 "Hg10 mi
1:53 PM83 °FSunny.15 mph34%29.54 "Hg10 mi
12:53 PM77 °FSunny.9 mph40%29.56 "Hg10 mi
11:53 AM76 °FSunny.12 mph43%29.58 "Hg10 mi
10:53 AM73 °FSunny.12 mph50%29.59 "Hg10 mi
9:53 AM69 °FSunny.10 mph57%29.57 "Hg10 mi
8:53 AM65 °FSunny.12 mph63%29.56 "Hg10 mi
7:53 AM63 °FSunny.6 mph70%29.54 "Hg10 mi
6:53 AM62 °FClear.6 mph73%29.53 "Hg10 mi
5:53 AM62 °FClear.9 mph80%29.51 "Hg10 mi
Weather by CustomWeather, © 2015

See weather overviewHow to use our weather pages